Temperature
18 17 16 17 18 19 18 18 18 19 19 19 18 18 18 19 19 18 19 20 20 20 21 20 20 20 19 19 18 18 18 17 17 16 16 15 15 15 14 14 14 14 14 13
17 17 18 18 18 18 18 18 18 19 19 19 18 18 18 18 18 19 19 19 20 20 20 20 20 20 19 19 18 18 18 17 16 16 16 16 15 15 14 14 14 14 13 13
18 18 19 19 19 18 18 18 19 19 19 19 19 19 19 19 18 19 19 20 20 20 20 20 20 20 19 19 18 18 17 17 16 16 16 15 15 15 14 14 14 14 13 13
18 19 19 19 19 19 18 19 19 19 18 17 18 18 18 18 18 18 18 19 20 20 20 20 20 20 19 19 18 18 17 17 16 16 16 15 15 15 14 14 14 14 13 13
19 19 19 19 19 19 19 19 19 19 18 17 17 17 18 18 19 19 18 19 20 20 20 21 20 20 20 19 18 18 17 17 16 16 16 15 15 15 14 14 14 14 13 13
18 19 19 19 20 19 19 18 17 16 16 17 17 17 18 17 19 19 19 19 20 20 20 20 20 20 19 19 18 18 17 17 16 16 16 15 15 15 15 14 14 14 14 13
19 19 19 20 20 19 18 17 17 17 16 17 17 17 17 18 18 18 19 20 20 20 20 20 20 20 20 19 19 18 18 17 17 16 16 15 15 15 15 14 14 14 14 14
19 18 19 20 20 19 18 17 17 17 17 16 17 17 18 19 19 19 19 20 20 20 20 20 20 20 20 19 19 18 18 17 17 16 16 15 15 15 15 14 14 14 14 13
18 19 20 20 20 19 18 16 16 15 16 16 17 18 18 19 19 18 19 19 20 20 21 21 20 20 20 19 19 18 18 17 17 16 16 16 15 15 15 14 14 14 14 14
18 19 19 19 20 19 18 16 15 16 16 17 18 18 18 20 19 19 18 19 20 21 21 20 20 20 20 19 19 18 18 17 17 16 16 16 15 15 15 14 14 14 14 14
18 18 19 19 20 19 18 17 15 14 15 16 17 18 18 18 19 18 18 19 20 21 21 21 21 20 20 19 19 18 18 17 17 16 16 16 15 15 15 15 14 14 14 14
17 16 17 18 19 19 19 18 16 17 16 15 16 17 19 18 17 18 19 20 21 21 21 21 20 20 20 19 19 18 18 17 17 17 16 16 15 15 15 15 14 14 14 14
17 16 17 18 18 18 19 18 16 15 14 14 16 18 18 17 18 18 19 19 20 21 21 20 20 20 19 19 19 18 18 18 17 17 16 16 16 15 15 15 14 14 14 14
17 16 16 18 18 18 18 19 17 16 15 16 16 18 18 18 17 17 18 19 20 20 20 20 20 20 19 19 19 18 18 18 17 17 16 16 16 16 15 15 15 14 14 14
16 17 17 17 18 18 18 18 18 17 16 16 17 18 18 17 17 17 18 18 19 19 19 19 19 19 19 19 19 18 18 18 17 17 17 16 16 16 15 15 15 14 14 14
15 17 17 18 18 17 18 18 18 18 17 17 17 17 17 17 17 17 17 18 18 19 19 19 19 19 19 19 19 18 18 18 17 17 17 16 16 16 15 15 15 14 14 14
14 15 16 16 16 18 18 18 18 17 17 17 17 17 16 16 17 17 17 18 18 19 19 19 19 19 19 19 19 19 18 18 17 17 17 16 16 16 15 15 15 14 14 14
14 14 13 14 17 18 17 17 17 17 16 16 16 16 16 16 17 18 18 18 19 19 19 19 19 19 19 19 18 18 18 18 17 17 17 17 16 16 15 15 15 14 14 14
13 13 13 13 15 16 17 17 17 17 16 16 15 15 16 17 17 17 18 18 18 19 19 19 19 19 19 19 18 18 18 17 17 17 17 17 16 16 16 15 15 15 14 14
12 12 12 13 16 16 17 17 17 17 16 16 15 15 16 16 15 15 18 18 18 18 18 18 18 18 18 18 18 18 18 17 17 17 17 16 16 16 16 15 15 15 14 14
13 12 12 13 14 15 15 16 17 16 16 16 16 16 16 15 15 17 17 18 18 18 18 18 18 18 18 18 17 17 17 17 17 17 17 16 16 16 15 15 15 15 14 14
13 12 12 12 13 15 15 15 15 15 16 16 16 16 16 16 17 17 17 17 17 17 17 17 17 17 17 17 17 17 17 17 17 16 16 16 16 16 15 15 15 15 14 14
12 12 11 12 13 14 15 15 16 16 16 16 16 16 16 16 16 16 16 17 17 17 17 17 17 17 16 16 16 16 16 16 16 16 16 16 16 15 15 15 15 15 14 14
11 11 11 12 13 14 15 15 15 15 15 15 15 15 16 16 16 16 16 16 16 16 16 16 16 16 16 16 16 16 15 15 15 16 16 16 15 15 15 15 15 14 14 14
11 11 11 11 12 14 15 15 15 15 15 15 15 15 15 15 15 15 15 15 15 15 15 15 15 15 15 15 15 15 15 15 15 15 15 15 15 15 15 15 15 14 14 14
9 11 11 11 13 12 13 14 14 14 14 14 14 14 14 14 14 14 14 14 14 14 14 14 14 14 14 14 14 14 14 14 14 14 15 15 14 14 14 14 14 14 14 13
Wind_Speed
3 4 3 6 5 4 3 3 3 5 3 1 4 6 7 4 4 5 5 5 6 6 3 4 6 7 7 7 7 6 6 5 4 2 2 2 0 1 1 1 2 2 2 2
4 1 5 4 3 2 2 2 3 3 1 1 3 6 5 3 4 5 7 7 7 5 4 5 6 6 7 8 7 7 6 5 4 3 2 2 1 0 1 2 2 2 3 2
4 3 3 4 2 2 2 4 3 2 3 3 3 6 4 2 1 1 3 5 6 9 9 8 7 7 7 8 8 7 6 5 4 4 3 3 3 2 2 2 2 2 3 2
1 1 3 3 3 4 3 4 3 1 2 3 3 2 6 4 3 2 4 5 6 7 7 7 8 8 8 8 6 6 6 5 4 4 4 4 3 1 2 2 2 3 3 2
1 1 2 2 4 5 4 0 2 2 3 2 4 1 7 4 3 4 5 6 6 6 8 8 8 9 8 7 7 6 6 5 4 4 5 4 3 2 1 1 2 3 3 3
2 1 2 3 1 3 3 5 6 5 4 3 2 1 5 4 5 5 4 6 7 7 7 7 6 6 5 5 5 6 6 5 4 4 4 4 4 3 1 1 2 2 2 3
5 3 2 1 3 3 5 5 4 5 5 3 3 0 6 6 5 5 5 5 5 6 7 7 8 8 7 8 7 6 6 5 5 5 5 5 4 4 3 2 2 2 2 2
3 4 3 1 2 3 2 5 6 3 2 4 4 2 6 6 5 2 1 3 3 4 5 7 8 8 8 8 8 8 8 6 6 5 5 4 4 3 3 3 2 2 2 3
2 3 3 1 1 5 4 3 4 6 2 2 5 6 7 4 6 5 3 2 3 5 5 6 6 7 7 8 8 9 8 7 6 6 5 4 4 4 4 3 2 2 2 2
3 0 4 2 4 5 4 7 5 5 3 1 5 4 4 6 5 4 2 2 3 3 4 5 5 6 6 6 5 6 7 7 6 6 5 4 4 4 3 2 2 2 2 2
2 3 4 4 2 0 3 4 5 4 4 4 1 5 5 5 5 5 5 5 5 5 5 5 5 5 5 4 4 5 5 5 5 5 5 4 4 3 3 3 3 3 2 2
2 4 1 4 4 1 2 4 5 4 1 3 3 6 5 5 6 5 6 5 4 4 4 4 4 4 4 4 5 5 5 6 6 5 5 4 4 3 3 3 3 2 2 2
3 5 3 6 6 5 4 3 4 5 4 4 3 5 4 5 5 4 3 4 3 2 2 2 3 3 4 4 4 5 6 6 5 5 5 4 4 4 4 4 3 2 2 2
4 4 5 5 5 3 3 0 3 4 3 3 5 6 7 8 7 7 5 3 2 1 1 2 2 3 4 4 4 5 6 6 5 5 5 5 5 5 5 4 3 2 2 1
4 3 2 3 3 2 3 4 3 4 6 6 6 4 6 6 5 5 4 3 4 3 2 1 3 3 3 3 3 4 5 5 5 6 6 7 6 5 4 3 3 2 2 1
4 2 1 2 2 2 3 4 2 3 3 4 2 4 4 3 3 4 5 4 4 4 3 3 3 2 3 4 4 4 4 5 5 6 7 6 5 5 5 4 3 2 2 1
1 3 2 3 5 3 3 3 1 2 1 3 3 4 3 3 4 4 3 3 3 4 4 3 3 4 5 5 4 5 5 4 5 6 5 5 5 5 5 5 4 3 3 2
4 4 3 0 3 2 4 2 2 4 2 1 1 3 2 2 2 2 2 2 4 4 4 4 4 4 4 3 3 3 2 4 5 5 5 4 5 6 5 5 5 4 3 3
4 6 4 3 1 4 4 2 1 2 1 2 2 4 4 3 4 4 4 3 4 4 3 4 4 3 3 2 2 2 2 3 4 5 5 6 6 6 6 7 6 5 4 3
5 5 5 4 3 4 4 4 3 3 1 4 2 3 4 4 4 6 7 6 5 5 4 4 3 3 2 2 2 3 3 3 5 6 6 6 5 7 8 8 6 4 5 5
3 3 3 4 4 6 5 6 2 3 4 4 2 1 1 1 4 6 6 5 5 4 4 3 3 2 2 1 2 3 3 6 6 5 4 5 5 6 7 6 5 5 5 5
4 4 4 4 3 6 3 3 2 4 3 2 2 2 2 4 5 5 5 5 5 5 5 4 3 4 3 1 2 3 5 5 3 3 4 5 5 5 5 6 5 5 6 6
4 5 5 6 6 3 2 0 1 1 2 3 3 4 3 4 5 5 5 6 5 5 5 4 3 4 3 2 3 4 5 2 2 2 3 4 4 4 5 6 7 5 6 6
3 1 2 3 4 3 4 2 2 3 3 4 4 4 3 3 4 5 5 5 5 5 5 4 4 4 5 4 4 4 3 2 2 3 3 3 3 4 4 5 6 6 7 7
5 1 1 4 5 5 3 3 4 5 4 4 4 4 3 3 4 4 5 5 5 5 4 4 3 4 6 5 5 3 2 2 3 3 3 3 3 4 4 5 5 7 7 8
5 5 5 6 6 4 7 6 4 4 5 5 5 5 4 3 4 4 5 5 4 5 5 5 5 5 6 5 5 4 3 3 3 3 3 3 3 3 3 4 2 4 6 8
Wind_Direction
98 95 177 209 199 188 163 185 245 259 251 227 258 270 273 244 207 210 210 203 204 213 199 156 154 147 142 144 149 154 151 153 139 125 128 118 133 309 327 320 322 327 323 319
62 215 217 184 160 141 155 222 266 290 292 210 287 287 280 242 215 213 207 204 202 196 177 162 154 154 158 162 165 163 164 165 169 161 152 151 152 221 269 302 320 323 322 313
169 228 170 143 141 154 222 207 227 255 347 26 356 333 326 322 303 196 201 203 196 192 187 179 169 171 167 173 178 177 174 170 168 147 114 82 57 30 7 340 324 317 318 318
210 243 149 148 190 174 249 235 204 169 59 339 26 325 308 316 323 243 217 208 205 196 188 183 177 178 183 186 176 170 169 168 167 153 149 145 149 193 238 254 280 304 314 316
273 180 146 191 227 184 219 23 104 97 125 35 21 66 298 336 313 271 231 217 216 202 189 189 188 187 186 178 173 171 165 169 170 164 165 157 166 205 246 284 301 315 320 317
278 250 191 212 277 156 132 64 58 50 71 43 330 94 297 295 273 277 238 217 210 201 194 191 181 171 174 169 168 166 167 178 177 172 173 177 184 193 206 277 299 313 316 311
3 349 326 152 73 47 75 79 40 20 23 288 305 189 263 282 276 254 233 219 206 195 189 186 183 181 181 179 180 177 174 189 187 183 191 196 197 190 202 228 247 278 299 296
48 326 308 336 152 150 115 128 144 159 203 297 344 301 273 291 307 301 177 173 178 187 189 192 195 191 190 190 186 182 186 195 191 192 203 202 199 195 212 223 226 242 254 267
139 289 313 322 101 122 115 105 147 127 116 30 326 316 318 348 15 29 49 100 190 200 199 202 198 195 193 193 196 192 191 195 196 197 197 201 202 202 213 224 228 246 261 273
149 41 328 326 64 42 106 138 96 96 114 34 335 328 298 317 328 338 331 273 247 222 208 205 202 203 202 202 200 191 191 196 197 194 197 200 203 208 208 204 230 252 269 290
95 104 341 18 47 167 83 83 93 95 127 134 15 289 244 256 277 278 268 258 245 236 224 213 207 201 193 185 186 192 194 194 194 196 198 197 201 201 197 207 227 239 260 278
89 105 15 297 295 253 130 138 137 125 158 140 150 270 284 277 280 273 272 269 259 246 234 209 199 186 186 193 195 196 197 199 203 196 191 199 196 189 200 219 230 233 251 269
115 93 52 356 351 10 52 94 110 116 114 139 151 268 314 354 348 331 299 292 280 259 231 184 177 194 206 208 208 206 204 207 201 186 187 192 194 197 211 221 222 224 237 263
109 101 150 186 230 287 320 343 139 125 134 187 217 254 314 342 344 340 338 323 326 323 208 191 201 213 216 215 215 215 217 207 195 185 189 198 205 207 211 210 207 215 218 228
84 113 195 235 258 254 255 263 207 190 188 190 229 238 289 314 319 327 342 8 26 12 347 255 230 227 223 226 230 225 220 206 194 190 201 211 208 199 195 196 203 208 208 215
56 120 61 324 321 296 281 289 238 213 195 211 246 273 295 313 6 16 19 29 20 352 331 299 263 241 231 228 231 233 228 209 192 201 213 209 193 188 191 195 196 195 203 208
60 116 98 294 313 3 314 298 196 153 145 165 199 254 306 3 8 4 2 14 344 320 317 310 282 250 241 234 220 222 227 199 191 207 213 203 194 194 197 191 183 194 202 187
151 123 125 64 31 236 252 295 148 135 70 23 316 312 311 297 313 342 6 354 332 326 317 301 293 279 256 237 225 212 182 184 195 207 210 203 197 199 192 183 191 199 193 188
157 139 123 122 167 286 301 330 163 153 11 359 12 360 355 347 10 357 351 334 304 300 294 280 274 270 265 235 207 171 176 186 201 217 220 212 202 198 190 193 199 197 186 187
72 93 114 126 163 235 253 307 301 126 331 335 5 353 351 37 14 307 323 324 322 325 322 320 323 335 316 264 169 164 193 201 223 227 225 217 206 201 199 200 197 192 185 189
76 74 128 160 209 258 275 303 35 120 256 305 316 318 348 224 239 275 310 322 325 325 326 335 345 336 307 263 174 191 208 229 237 231 217 207 207 209 203 194 189 182 181 179
174 161 178 155 190 248 318 46 113 222 259 286 300 309 294 281 293 311 327 336 341 339 337 339 339 326 322 238 187 221 238 247 239 215 212 211 208 208 195 182 184 180 176 178
198 192 188 190 210 242 317 217 262 226 310 305 296 301 300 306 310 318 324 329 330 329 327 325 319 317 316 273 218 235 261 261 224 213 219 219 208 206 188 182 183 179 179 184
274 161 159 254 266 283 311 311 337 339 306 295 294 304 308 296 302 310 317 320 321 323 323 321 324 318 308 292 265 252 256 228 208 218 230 218 205 206 196 191 188 187 189 192
243 184 188 270 285 313 304 301 313 320 320 316 314 302 283 281 294 298 305 307 311 313 313 313 304 296 296 297 286 273 235 199 214 225 224 220 212 206 201 200 203 202 206 198
212 196 199 238 243 234 265 280 292 298 302 304 308 307 299 275 277 288 293 293 300 305 306 305 298 295 299 301 292 280 244 210 205 224 229 221 215 213 204 198 220 233 224 219
Height
1485 1490 1495 1492 1491 1492 1494 1498 1500 1495 1489 1491 1492 1490 1485 1483 1484 1485 1486 1487 1489 1491 1494 1496 1499 1501 1503 1505 1507 1509 1510 1511 1512 1512 1512 1512 1511 1512 1511 1511 1510 1509 1508 1507
1490 1492 1488 1487 1488 1491 1494 1498 1498 1493 1488 1489 1491 1489 1484 1482 1483 1483 1484 1485 1487 1490 1492 1495 1497 1500 1502 1504 1506 1508 1509 1510 1511 1511 1511 1511 1511 1511 1511 1510 1509 1508 1507 1506
1490 1488 1484 1487 1489 1493 1494 1496 1495 1494 1490 1489 1491 1492 1486 1482 1482 1482 1483 1484 1486 1488 1490 1493 1496 1498 1501 1503 1505 1507 1508 1509 1510 1510 1510 1510 1510 1510 1510 1509 1509 1508 1506 1505
1487 1485 1485 1487 1489 1491 1496 1489 1489 1492 1498 1503 1499 1508 1492 1486 1484 1482 1482 1483 1485 1487 1489 1492 1494 1497 1499 1502 1504 1506 1507 1508 1509 1509 1509 1509 1509 1509 1509 1509 1508 1507 1506 1504
1487 1485 1486 1488 1487 1487 1489 1486 1488 1492 1498 1505 1504 1509 1501 1489 1486 1483 1482 1482 1484 1486 1488 1491 1493 1496 1498 1501 1503 1505 1506 1507 1508 1509 1509 1509 1509 1509 1509 1508 1507 1506 1505 1504
1485 1483 1484 1484 1483 1484 1486 1490 1494 1500 1505 1514 1508 1511 1506 1495 1487 1482 1480 1481 1483 1485 1487 1490 1493 1495 1497 1500 1502 1503 1505 1506 1507 1507 1508 1508 1508 1508 1508 1507 1506 1505 1504 1503
1490 1485 1483 1482 1485 1486 1489 1501 1515 1516 1522 1518 1507 1508 1505 1487 1482 1481 1479 1480 1482 1484 1486 1488 1491 1493 1495 1498 1500 1501 1503 1504 1505 1506 1507 1507 1508 1507 1507 1506 1505 1504 1503 1502
1498 1499 1486 1483 1485 1489 1492 1498 1516 1523 1525 1520 1509 1509 1496 1484 1480 1478 1478 1479 1481 1483 1485 1487 1489 1492 1494 1496 1498 1500 1501 1503 1504 1505 1506 1506 1507 1506 1506 1505 1505 1504 1503 1501
1498 1497 1484 1482 1482 1485 1494 1500 1501 1514 1517 1522 1515 1504 1491 1481 1479 1478 1479 1480 1481 1482 1484 1486 1489 1491 1493 1495 1497 1498 1500 1501 1502 1504 1504 1505 1505 1505 1505 1505 1504 1503 1502 1501
1490 1495 1488 1484 1483 1486 1489 1497 1507 1514 1523 1527 1517 1511 1505 1488 1484 1481 1480 1480 1480 1482 1484 1486 1488 1489 1491 1493 1495 1497 1499 1500 1501 1502 1503 1504 1504 1504 1504 1504 1503 1502 1501 1500
1488 1496 1494 1489 1490 1491 1494 1499 1506 1515 1516 1526 1525 1517 1492 1488 1484 1483 1481 1480 1481 1481 1483 1484 1486 1488 1490 1492 1494 1495 1497 1498 1499 1501 1502 1502 1503 1503 1503 1502 1502 1501 1500 1499
1490 1498 1503 1495 1487 1486 1489 1494 1503 1511 1517 1520 1523 1516 1485 1484 1483 1481 1480 1480 1480 1481 1482 1483 1485 1487 1488 1490 1492 1493 1495 1496 1498 1499 1500 1501 1501 1501 1501 1501 1500 1500 1499 1498
1490 1499 1509 1507 1502 1493 1492 1494 1498 1506 1515 1521 1522 1511 1484 1483 1482 1481 1480 1479 1479 1480 1481 1482 1483 1485 1486 1488 1490 1491 1493 1494 1495 1497 1498 1498 1499 1499 1499 1499 1499 1498 1498 1497
1488 1498 1506 1511 1505 1497 1496 1494 1497 1502 1513 1516 1512 1502 1489 1486 1484 1481 1480 1479 1479 1479 1480 1480 1481 1483 1484 1486 1487 1489 1490 1492 1493 1494 1495 1496 1497 1497 1497 1497 1497 1497 1496 1496
1489 1498 1497 1497 1494 1495 1495 1494 1494 1498 1501 1507 1500 1497 1491 1487 1485 1483 1481 1479 1479 1479 1479 1480 1480 1481 1483 1484 1485 1486 1488 1489 1490 1491 1492 1493 1494 1495 1495 1495 1495 1495 1495 1494
1492 1497 1497 1497 1494 1494 1494 1491 1491 1493 1495 1497 1496 1495 1488 1486 1484 1483 1481 1480 1479 1479 1479 1479 1480 1480 1481 1482 1483 1484 1485 1486 1488 1489 1490 1491 1492 1492 1493 1493 1493 1493 1493 1493
1497 1498 1503 1505 1499 1494 1499 1492 1491 1492 1492 1493 1496 1493 1487 1486 1484 1484 1482 1481 1480 1480 1479 1479 1479 1479 1480 1480 1481 1482 1482 1484 1485 1486 1487 1488 1489 1489 1490 1491 1491 1491 1491 1491
1496 1501 1507 1508 1503 1507 1499 1488 1488 1490 1491 1491 1490 1488 1487 1486 1485 1483 1483 1482 1480 1480 1479 1478 1478 1478 1478 1479 1479 1480 1481 1481 1482 1483 1484 1484 1485 1486 1487 1488 1488 1489 1489 1489
1492 1499 1508 1512 1510 1506 1495 1488 1488 1490 1492 1489 1488 1487 1486 1484 1483 1483 1482 1482 1481 1480 1479 1478 1477 1477 1476 1476 1477 1478 1478 1478 1479 1479 1480 1481 1482 1483 1483 1484 1485 1486 1486 1487
1494 1496 1506 1511 1508 1508 1496 1486 1484 1487 1494 1489 1487 1487 1486 1485 1488 1485 1482 1481 1479 1478 1478 1477 1476 1475 1474 1474 1474 1475 1475 1475 1475 1476 1477 1478 1478 1479 1480 1481 1482 1483 1483 1484
1500 1503 1507 1510 1508 1502 1491 1486 1485 1497 1497 1489 1487 1486 1485 1486 1487 1484 1481 1480 1478 1477 1476 1475 1474 1473 1472 1472 1472 1472 1472 1472 1472 1473 1473 1474 1475 1475 1476 1477 1478 1479 1480 1481
1499 1504 1507 1509 1509 1504 1488 1487 1491 1493 1488 1487 1486 1485 1485 1483 1482 1481 1479 1478 1476 1475 1474 1473 1471 1470 1470 1469 1469 1468 1468 1469 1469 1469 1469 1470 1471 1471 1472 1473 1474 1475 1476 1477
1496 1496 1497 1498 1497 1490 1487 1487 1488 1487 1486 1486 1485 1484 1483 1482 1480 1479 1478 1476 1475 1473 1472 1471 1470 1468 1468 1467 1466 1465 1465 1465 1465 1465 1465 1466 1466 1467 1468 1469 1470 1471 1472 1472
1492 1491 1493 1493 1488 1487 1486 1486 1486 1486 1485 1484 1483 1482 1481 1480 1478 1477 1475 1474 1473 1471 1470 1468 1467 1466 1465 1464 1463 1462 1462 1461 1461 1461 1461 1462 1462 1463 1464 1465 1466 1466 1467 1468
1490 1490 1491 1491 1487 1485 1484 1484 1484 1483 1482 1481 1480 1480 1479 1477 1476 1475 1473 1472 1470 1469 1467 1466 1464 1463 1462 1460 1459 1459 1458 1458 1457 1457 1457 1458 1458 1459 1459 1460 1461 1462 1463 1464
1486 1487 1489 1488 1484 1484 1482 1482 1481 1480 1479 1478 1477 1476 1475 1474 1473 1472 1470 1469 1468 1466 1464 1463 1461 1460 1458 1457 1456 1455 1454 1453 1453 1453 1453 1453 1453 1454 1454 1455 1456 1457 1459 1460